Regional Weather Roundup
Issued by NWS

Home | Current Version | Previous Version | Text Only | Print | Product List | Glossary Off
Versions: 1 2 3 4 5 6 7 8 9 10 11 12 13 14 15 16 17 18 19 20 21 22 23 24 25 26 27 28 29 30 31 32 33 34 35 36 37 38 39 40 41 42 43 44 45 46 47 48 49 50

000
ASUS43 KIND 262059
RWRIN

WEATHER ROUNDUP FOR INDIANA
NATIONAL WEATHER SERVICE INDIANAPOLIS IN
500 PM EDT THU APR 26 2018

NOTE: "FAIR" INDICATES FEW OR NO CLOUDS BELOW 12,000 FEET WITH NO
SIGNIFICANT WEATHER AND/OR OBSTRUCTIONS TO VISIBILITY.

* - STATION DOES NOT REPORT WEATHER SUCH AS PRECIPITATION OR FOG.

+ - STATION NOT QUALITY CONTROLLED BY THE NATIONAL WEATHER SERVICE.
    USE DATA WITH CAUTION...ESPECIALLY DEWPOINT AND RELATIVE
    HUMIDITY OBSERVATIONS.

INZ001>003-010>013-019-020-262200-
NORTHWEST INDIANA

CITY           SKY/WX    TMP DP  RH WIND       PRES   REMARKS
GARY /AIRPORT/ PTSUNNY   63  18  17 E10       29.90
KNOX *+        FAIR      63  28  27 N3        29.87F
MICHIGAN CITY+ FAIR      55  30  38 N10       29.91F
MONTICELLO +   FAIR      64  28  25 E5        29.87F
RENSSELAER +   FAIR      64   5   9 W5        29.87F

$$

LMZ046-743>745-262200-
SOUTHERN LAKE MICHIGAN

STATION/POSITION TIME  TEMP    WIND        PRES    WAVE
                       AIR SEA DIR/SP/G            HT
                 (UTC) (F)     (DEG/KT/KT) (MB)    (FT)
BURNS HARBOR     2040   47      60/  5/  7 1013.5F
MICHIGAN CITY    2030   43      20/  4/  4   N/A

$$

INZ004-005-014>016-021>024-262200-
NORTH CENTRAL INDIANA

CITY           SKY/WX    TMP DP  RH WIND       PRES   REMARKS
GOSHEN         FAIR      62  36  37 VRB3      29.87F
PERU/GRISSOM   FAIR      64  33  32 CALM      29.85F
ROCHESTER +    FAIR      64  34  32 SE3       29.87F
SOUTH BEND     FAIR      62  36  37 NW9       29.90S
WARSAW +       FAIR      61  36  39 N6        29.87F

$$

INZ006>009-017-018-025>027-262200-
NORTHEAST INDIANA

CITY           SKY/WX    TMP DP  RH WIND       PRES   REMARKS
ANGOLA *+      FAIR      63  32  31 SW8G14    29.86F
FORT WAYNE     FAIR      66  39  37 CALM      29.87F
KENDALLVILLE + FAIR      63  28  26 W6        29.87F

$$

INZ028-029-035-036-043>045-051>053-262200-
WEST CENTRAL INDIANA

CITY           SKY/WX    TMP DP  RH WIND       PRES   REMARKS
CRAWFORDSVL +  FAIR      63  33  32 NW8       29.87F
GREENCASTLE +  FAIR      63  30  29 N6        29.87F
LAFAYETTE      FAIR      64  35  34 N10G17    29.87F
TERRE HAUTE    FAIR      66  33  29 NW14      29.87F

$$

INZ030>032-037>040-046>048-054>057-064-065-262200-
CENTRAL INDIANA

CITY           SKY/WX    TMP DP  RH WIND       PRES   REMARKS
COLUMBUS       MOSUNNY   63  23  22 NW8       29.86F
GREENWOOD *+   FAIR      64  30  28 N5        29.85F
INDIANAPOLIS   FAIR      65  32  29 N6        29.85F
-EAGLE CREEK   FAIR      65  35  33 N5        29.85F
KOKOMO +       FAIR      65  36  34 VRB7      29.87F
MT COMFORT *+  FAIR      64  41  42 N6        29.86F
SHELBYVILLE    FAIR      66  32  28 N8        29.84F
ZIONSVILLE +   FAIR      62  33  33 N7        29.86F

$$

INZ033-034-041-042-049-050-058-059-262200-
EAST CENTRAL INDIANA

CITY           SKY/WX    TMP DP  RH WIND       PRES   REMARKS
MUNCIE         FAIR      67  34  29 VRB6      29.84F
RICHMOND +     FAIR      63  34  34 S3        29.85F

$$

INZ060-061-067>069-081>083-085>088-262200-
SOUTHWEST INDIANA

CITY           SKY/WX    TMP DP  RH WIND       PRES   REMARKS
EVANSVILLE     FAIR      67  35  30 N6        29.87F
HUNTINGBURG +  FAIR      66  33  29 N8        29.86F

$$

INZ062-063-066-070>080-084-089>092-262200-
SOUTH CENTRAL AND SOUTHEAST INDIANA

CITY           SKY/WX    TMP DP  RH WIND       PRES   REMARKS
BLOOMINGTON    FAIR      66  27  23 NW7       29.85F
FRENCH LICK *+ FAIR      66  18  15 W10G21    29.84F
MADISON *+     FAIR      64  23  20 W3        29.85F
SEYMOUR +      FAIR      66  34  30 CALM      29.84F

$$





USA.gov is the U.S. government's official web portal to all federal, state and local government web resources and services.